{"data":{"norad_id":66523,"intl_designator":"2025-265H","name":"STARLINK-35969","alt_names":[],"object_type":"PAYLOAD","status":"ACTIVE","operator":null,"country":"US","launch_date":"2025-11-19","launch_site_code":"AFETR","launch_vehicle":null,"mission":null,"orbit_class":"UNKNOWN","rcs_meters":null,"size_class":null,"mass_kg":null,"dimensions":null,"purposes":["comms"],"wikipedia_slug":null,"has_3d_model":false,"image_url":null,"decayed_at":null,"tle_current":{"epoch":"2026-09-20T08:12:20.008800Z","epoch_age_seconds":102886,"freshness":"FRESH","line1":"1 66523U 25265H   26263.34189825  .00008892  00000+0  33219-3 0  9998","line2":"2 66523  42.9995 258.5833 0001320 273.3350  86.7350 15.27588346 46889","mean_motion":15.27588346,"eccentricity":0.000132,"inclination_deg":42.9995,"raan_deg":258.5833,"arg_perigee_deg":273.335,"mean_anomaly_deg":86.735,"bstar":0.00033219,"rev_number":4688,"period_min":94.26623368597,"perigee_km":482.11843196109,"apogee_km":483.92977849287,"semimajor_km":6861.161105227,"source":"CELESTRAK","updated_at":"2026-09-21T09:00:35.964702Z"}}}